Year,Month,Day,Hour,Minute,Value (Times are PST for temperature in C)
2016,07,24,00,00,16.70
2016,07,24,00,01,16.70
2016,07,24,00,02,16.70
2016,07,24,00,03,16.70
2016,07,24,00,04,16.70
2016,07,24,00,05,16.70
2016,07,24,00,06,16.60
2016,07,24,00,07,16.60
2016,07,24,00,08,16.60
2016,07,24,00,09,16.60
2016,07,24,00,10,16.60
2016,07,24,00,11,16.60
2016,07,24,00,12,16.60
2016,07,24,00,13,16.60
2016,07,24,00,14,16.50
2016,07,24,00,15,16.50
2016,07,24,00,16,16.50
2016,07,24,00,17,16.40
2016,07,24,00,18,16.40
2016,07,24,00,19,16.30
2016,07,24,00,20,16.30
2016,07,24,00,21,16.30
2016,07,24,00,22,16.20
2016,07,24,00,23,16.20
2016,07,24,00,24,16.20
2016,07,24,00,25,16.10
2016,07,24,00,26,16.10
2016,07,24,00,27,16.00
2016,07,24,00,28,16.00
2016,07,24,00,29,15.90
2016,07,24,00,30,15.90
2016,07,24,00,31,15.90
2016,07,24,00,32,15.90
2016,07,24,00,33,15.80
2016,07,24,00,34,15.80
2016,07,24,00,35,15.80
2016,07,24,00,36,15.80
2016,07,24,00,37,15.80
2016,07,24,00,38,15.80
2016,07,24,00,39,15.70
2016,07,24,00,40,15.70
2016,07,24,00,41,15.70
2016,07,24,00,42,15.70
2016,07,24,00,43,15.70
2016,07,24,00,44,15.70
2016,07,24,00,45,15.70
2016,07,24,00,46,15.70
2016,07,24,00,47,15.70
2016,07,24,00,48,15.70
2016,07,24,00,49,15.70
2016,07,24,00,50,15.60
2016,07,24,00,51,15.60
2016,07,24,00,52,15.60
2016,07,24,00,53,15.60
2016,07,24,00,54,15.60
2016,07,24,00,55,15.60
2016,07,24,00,56,15.60
2016,07,24,00,57,15.60
2016,07,24,00,58,15.60
2016,07,24,00,59,15.60
2016,07,24,01,00,15.60
2016,07,24,01,01,15.60
2016,07,24,01,02,15.60
2016,07,24,01,03,15.60
2016,07,24,01,04,15.60
2016,07,24,01,05,15.60
2016,07,24,01,06,15.60
2016,07,24,01,07,15.50
2016,07,24,01,08,15.50
2016,07,24,01,09,15.50
2016,07,24,01,10,15.50
2016,07,24,01,11,15.40
2016,07,24,01,12,15.40
2016,07,24,01,13,15.40
2016,07,24,01,14,15.30
2016,07,24,01,15,15.30
2016,07,24,01,16,15.30
2016,07,24,01,17,15.30
2016,07,24,01,18,15.20
2016,07,24,01,19,15.20
2016,07,24,01,20,15.20
2016,07,24,01,21,15.20
2016,07,24,01,22,15.20
2016,07,24,01,23,15.20
2016,07,24,01,24,15.20
2016,07,24,01,25,15.10
2016,07,24,01,26,15.10
2016,07,24,01,27,15.10
2016,07,24,01,28,15.10
2016,07,24,01,29,15.10
2016,07,24,01,30,15.10
2016,07,24,01,31,15.10
2016,07,24,01,32,15.10
2016,07,24,01,33,15.10
2016,07,24,01,34,15.00
2016,07,24,01,35,15.00
2016,07,24,01,36,15.00
2016,07,24,01,37,15.00
2016,07,24,01,38,15.00
2016,07,24,01,39,15.00
2016,07,24,01,40,15.00
2016,07,24,01,41,14.90
2016,07,24,01,42,14.90
2016,07,24,01,43,14.90
2016,07,24,01,44,14.90
2016,07,24,01,45,14.90
2016,07,24,01,46,14.80
2016,07,24,01,47,14.80
2016,07,24,01,48,14.80
2016,07,24,01,49,14.80
2016,07,24,01,50,14.80
2016,07,24,01,51,14.80
2016,07,24,01,52,14.80
2016,07,24,01,53,14.80
2016,07,24,01,54,14.80
2016,07,24,01,55,14.80
2016,07,24,01,56,14.80
2016,07,24,01,57,14.80
2016,07,24,01,58,14.80
2016,07,24,01,59,14.80
2016,07,24,02,00,14.80
2016,07,24,02,01,14.80
2016,07,24,02,02,14.80
2016,07,24,02,03,14.80
2016,07,24,02,04,14.80
2016,07,24,02,05,14.80
2016,07,24,02,06,14.80
2016,07,24,02,07,14.80
2016,07,24,02,08,14.80
2016,07,24,02,09,14.80
2016,07,24,02,10,14.70
2016,07,24,02,11,14.70
2016,07,24,02,12,14.70
2016,07,24,02,13,14.70
2016,07,24,02,14,14.70
2016,07,24,02,15,14.70
2016,07,24,02,16,14.60
2016,07,24,02,17,14.60
2016,07,24,02,18,14.60
2016,07,24,02,19,14.60
2016,07,24,02,20,14.60
2016,07,24,02,21,14.60
2016,07,24,02,22,14.60
2016,07,24,02,23,14.60
2016,07,24,02,24,14.60
2016,07,24,02,25,14.60
2016,07,24,02,26,14.50
2016,07,24,02,27,14.60
2016,07,24,02,28,14.60
2016,07,24,02,29,14.60
2016,07,24,02,30,14.50
2016,07,24,02,31,14.50
2016,07,24,02,32,14.50
2016,07,24,02,33,14.50
2016,07,24,02,34,14.50
2016,07,24,02,35,14.50
2016,07,24,02,36,14.50
2016,07,24,02,37,14.50
2016,07,24,02,38,14.40
2016,07,24,02,39,14.40
2016,07,24,02,40,14.40
2016,07,24,02,41,14.40
2016,07,24,02,42,14.40
2016,07,24,02,43,14.40
2016,07,24,02,44,14.30
2016,07,24,02,45,14.30
2016,07,24,02,46,14.30
2016,07,24,02,47,14.20
2016,07,24,02,48,14.20
2016,07,24,02,49,14.20
2016,07,24,02,50,14.20
2016,07,24,02,51,14.10
2016,07,24,02,52,14.10
2016,07,24,02,53,14.10
2016,07,24,02,54,14.10
2016,07,24,02,55,14.00
2016,07,24,02,56,14.00
2016,07,24,02,57,14.00
2016,07,24,02,58,14.00
2016,07,24,02,59,14.00
2016,07,24,03,00,14.00
2016,07,24,03,01,14.00
2016,07,24,03,02,13.90
2016,07,24,03,03,14.00
2016,07,24,03,04,14.00
2016,07,24,03,05,14.00
2016,07,24,03,06,14.00
2016,07,24,03,07,14.00
2016,07,24,03,08,14.00
2016,07,24,03,09,14.00
2016,07,24,03,10,14.00
2016,07,24,03,11,14.00
2016,07,24,03,12,14.00
2016,07,24,03,13,14.00
2016,07,24,03,14,14.00
2016,07,24,03,15,14.00
2016,07,24,03,16,14.00
2016,07,24,03,17,14.00
2016,07,24,03,18,14.00
2016,07,24,03,19,14.00
2016,07,24,03,20,14.00
2016,07,24,03,21,14.00
2016,07,24,03,22,14.00
2016,07,24,03,23,14.00
2016,07,24,03,24,13.90
2016,07,24,03,25,14.00
2016,07,24,03,26,14.00
2016,07,24,03,27,13.90
2016,07,24,03,28,13.90
2016,07,24,03,29,14.00
2016,07,24,03,30,14.00
2016,07,24,03,31,13.90
2016,07,24,03,32,13.90
2016,07,24,03,33,13.90
2016,07,24,03,34,13.90
2016,07,24,03,35,13.90
2016,07,24,03,36,13.90
2016,07,24,03,37,13.90
2016,07,24,03,38,13.90
2016,07,24,03,39,13.90
2016,07,24,03,40,13.90
2016,07,24,03,41,13.90
2016,07,24,03,42,13.90
2016,07,24,03,43,13.90
2016,07,24,03,44,13.90
2016,07,24,03,45,13.90
2016,07,24,03,46,13.90
2016,07,24,03,47,13.90
2016,07,24,03,48,13.90
2016,07,24,03,49,13.90
2016,07,24,03,50,13.90
2016,07,24,03,51,13.90
2016,07,24,03,52,13.90
2016,07,24,03,53,13.90
2016,07,24,03,54,13.90
2016,07,24,03,55,13.80
2016,07,24,03,56,13.80
2016,07,24,03,57,13.80
2016,07,24,03,58,13.80
2016,07,24,03,59,13.80
2016,07,24,04,00,13.80
2016,07,24,04,01,13.80
2016,07,24,04,02,13.80
2016,07,24,04,03,13.80
2016,07,24,04,04,13.80
2016,07,24,04,05,13.80
2016,07,24,04,06,13.80
2016,07,24,04,07,13.70
2016,07,24,04,08,13.70
2016,07,24,04,09,13.70
2016,07,24,04,10,13.70
2016,07,24,04,11,13.70
2016,07,24,04,12,13.70
2016,07,24,04,13,13.70
2016,07,24,04,14,13.70
2016,07,24,04,15,13.70
2016,07,24,04,16,13.70
2016,07,24,04,17,13.60
2016,07,24,04,18,13.60
2016,07,24,04,19,13.60
2016,07,24,04,20,13.60
2016,07,24,04,21,13.60
2016,07,24,04,22,13.60
2016,07,24,04,23,13.60
2016,07,24,04,24,13.60
2016,07,24,04,25,13.60
2016,07,24,04,26,13.60
2016,07,24,04,27,13.60
2016,07,24,04,28,13.60
2016,07,24,04,29,13.60
2016,07,24,04,30,13.60
2016,07,24,04,31,13.60
2016,07,24,04,32,13.50
2016,07,24,04,33,13.50
2016,07,24,04,34,13.50
2016,07,24,04,35,13.50
2016,07,24,04,36,13.40
2016,07,24,04,37,13.40
2016,07,24,04,38,13.40
2016,07,24,04,39,13.40
2016,07,24,04,40,13.40
2016,07,24,04,41,13.40
2016,07,24,04,42,13.40
2016,07,24,04,43,13.30
2016,07,24,04,44,13.30
2016,07,24,04,45,13.30
2016,07,24,04,46,13.30
2016,07,24,04,47,13.30
2016,07,24,04,48,13.30
2016,07,24,04,49,13.30
2016,07,24,04,50,13.30
2016,07,24,04,51,13.30
2016,07,24,04,52,13.30
2016,07,24,04,53,13.30
2016,07,24,04,54,13.30
2016,07,24,04,55,13.30
2016,07,24,04,56,13.30
2016,07,24,04,57,13.30
2016,07,24,04,58,13.40
2016,07,24,04,59,13.30
2016,07,24,05,00,13.40
2016,07,24,05,01,13.40
2016,07,24,05,02,13.40
2016,07,24,05,03,13.30
2016,07,24,05,04,13.30
2016,07,24,05,05,13.30
2016,07,24,05,06,13.30
2016,07,24,05,07,13.30
2016,07,24,05,08,13.30
2016,07,24,05,09,13.30
2016,07,24,05,10,13.30
2016,07,24,05,11,13.20
2016,07,24,05,12,13.20
2016,07,24,05,13,13.20
2016,07,24,05,14,13.20
2016,07,24,05,15,13.20
2016,07,24,05,16,13.20
2016,07,24,05,17,13.20
2016,07,24,05,18,13.20
2016,07,24,05,19,13.20
2016,07,24,05,20,13.20
2016,07,24,05,21,13.20
2016,07,24,05,22,13.20
2016,07,24,05,23,13.10
2016,07,24,05,24,13.10
2016,07,24,05,25,13.10
2016,07,24,05,26,13.10
2016,07,24,05,27,13.10
2016,07,24,05,28,13.10
2016,07,24,05,29,13.10
2016,07,24,05,30,13.00
2016,07,24,05,31,13.00
2016,07,24,05,32,13.00
2016,07,24,05,33,12.90
2016,07,24,05,34,12.90
2016,07,24,05,35,12.90
2016,07,24,05,36,12.90
2016,07,24,05,37,12.90
2016,07,24,05,38,12.90
2016,07,24,05,39,12.90
2016,07,24,05,40,12.90
2016,07,24,05,41,12.90
2016,07,24,05,42,12.80
2016,07,24,05,43,12.80
2016,07,24,05,44,12.80
2016,07,24,05,45,12.80
2016,07,24,05,46,12.80
2016,07,24,05,47,12.80
2016,07,24,05,48,12.80
2016,07,24,05,49,12.80
2016,07,24,05,50,12.70
2016,07,24,05,51,12.70
2016,07,24,05,52,12.70
2016,07,24,05,53,12.70
2016,07,24,05,54,12.70
2016,07,24,05,55,12.70
2016,07,24,05,56,12.70
2016,07,24,05,57,12.70
2016,07,24,05,58,12.70
2016,07,24,05,59,12.70
2016,07,24,06,00,12.70
2016,07,24,06,01,12.70
2016,07,24,06,02,12.70
2016,07,24,06,03,12.80
2016,07,24,06,04,12.80
2016,07,24,06,05,12.80
2016,07,24,06,06,12.80
2016,07,24,06,07,12.80
2016,07,24,06,08,12.90
2016,07,24,06,09,12.90
2016,07,24,06,10,13.00
2016,07,24,06,11,13.00
2016,07,24,06,12,13.10
2016,07,24,06,13,13.10
2016,07,24,06,14,13.20
2016,07,24,06,15,13.20
2016,07,24,06,16,13.30
2016,07,24,06,17,13.30
2016,07,24,06,18,13.40
2016,07,24,06,19,13.40
2016,07,24,06,20,13.50
2016,07,24,06,21,13.50
2016,07,24,06,22,13.60
2016,07,24,06,23,13.60
2016,07,24,06,24,13.70
2016,07,24,06,25,13.70
2016,07,24,06,26,13.70
2016,07,24,06,27,13.80
2016,07,24,06,28,13.80
2016,07,24,06,29,13.80
2016,07,24,06,30,13.80
2016,07,24,06,31,13.90
2016,07,24,06,32,13.90
2016,07,24,06,33,13.90
2016,07,24,06,34,14.00
2016,07,24,06,35,14.00
2016,07,24,06,36,14.10
2016,07,24,06,37,14.20
2016,07,24,06,38,14.20
2016,07,24,06,39,14.30
2016,07,24,06,40,14.30
2016,07,24,06,41,14.30
2016,07,24,06,42,14.30
2016,07,24,06,43,14.30
2016,07,24,06,44,14.30
2016,07,24,06,45,14.40
2016,07,24,06,46,14.40
2016,07,24,06,47,14.40
2016,07,24,06,48,14.40
2016,07,24,06,49,14.50
2016,07,24,06,50,14.50
2016,07,24,06,51,14.50
2016,07,24,06,52,14.60
2016,07,24,06,53,14.60
2016,07,24,06,54,14.60
2016,07,24,06,55,14.60
2016,07,24,06,56,14.70
2016,07,24,06,57,14.70
2016,07,24,06,58,14.70
2016,07,24,06,59,14.80
2016,07,24,07,00,14.80
2016,07,24,07,01,14.90
2016,07,24,07,02,14.90
2016,07,24,07,03,14.90
2016,07,24,07,04,15.00
2016,07,24,07,05,15.00
2016,07,24,07,06,15.10
2016,07,24,07,07,15.10
2016,07,24,07,08,15.20
2016,07,24,07,09,15.20
2016,07,24,07,10,15.30
2016,07,24,07,11,15.40
2016,07,24,07,12,15.40
2016,07,24,07,13,15.50
2016,07,24,07,14,15.60
2016,07,24,07,15,15.70
2016,07,24,07,16,15.80
2016,07,24,07,17,15.80
2016,07,24,07,18,15.90
2016,07,24,07,19,16.00
2016,07,24,07,20,16.10
2016,07,24,07,21,16.10
2016,07,24,07,22,16.20
2016,07,24,07,23,16.20
2016,07,24,07,24,16.30
2016,07,24,07,25,16.30
2016,07,24,07,26,16.40
2016,07,24,07,27,16.50
2016,07,24,07,28,16.50
2016,07,24,07,29,16.60
2016,07,24,07,30,16.70
2016,07,24,07,31,16.80
2016,07,24,07,32,16.90
2016,07,24,07,33,17.00
2016,07,24,07,34,17.10
2016,07,24,07,35,17.30
2016,07,24,07,36,17.30
2016,07,24,07,37,17.40
2016,07,24,07,38,17.40
2016,07,24,07,39,17.40
2016,07,24,07,40,17.40
2016,07,24,07,41,17.50
2016,07,24,07,42,17.50
2016,07,24,07,43,17.60
2016,07,24,07,44,17.60
2016,07,24,07,45,17.70
2016,07,24,07,46,17.70
2016,07,24,07,47,17.70
2016,07,24,07,48,17.70
2016,07,24,07,49,17.80
2016,07,24,07,50,17.80
2016,07,24,07,51,17.80
2016,07,24,07,52,17.90
2016,07,24,07,53,17.90
2016,07,24,07,54,17.90
2016,07,24,07,55,18.00
2016,07,24,07,56,18.00
2016,07,24,07,57,18.10
2016,07,24,07,58,18.10
2016,07,24,07,59,18.20
2016,07,24,08,00,18.20
2016,07,24,08,01,18.30
2016,07,24,08,02,18.30
2016,07,24,08,03,18.30
2016,07,24,08,04,18.40
2016,07,24,08,05,18.40
2016,07,24,08,06,18.50
2016,07,24,08,07,18.50
2016,07,24,08,08,18.60
2016,07,24,08,09,18.60
2016,07,24,08,10,18.60
2016,07,24,08,11,18.60
2016,07,24,08,12,18.70
2016,07,24,08,13,18.70
2016,07,24,08,14,18.80
2016,07,24,08,15,18.80
2016,07,24,08,16,18.90
2016,07,24,08,17,18.90
2016,07,24,08,18,19.00
2016,07,24,08,19,19.10
2016,07,24,08,20,19.10
2016,07,24,08,21,19.10
2016,07,24,08,22,19.10
2016,07,24,08,23,19.00
2016,07,24,08,24,18.90
2016,07,24,08,25,18.90
2016,07,24,08,26,18.80
2016,07,24,08,27,18.80
2016,07,24,08,28,18.70
2016,07,24,08,29,18.70
2016,07,24,08,30,18.70
2016,07,24,08,31,18.60
2016,07,24,08,32,18.60
2016,07,24,08,33,18.60
2016,07,24,08,34,18.60
2016,07,24,08,35,18.70
2016,07,24,08,36,18.70
2016,07,24,08,37,18.60
2016,07,24,08,38,18.60
2016,07,24,08,39,18.50
2016,07,24,08,40,18.40
2016,07,24,08,41,18.30
2016,07,24,08,42,18.20
2016,07,24,08,43,18.20
2016,07,24,08,44,18.20
2016,07,24,08,45,18.10
2016,07,24,08,46,18.20
2016,07,24,08,47,18.20
2016,07,24,08,48,18.20
2016,07,24,08,49,18.10
2016,07,24,08,50,18.00
2016,07,24,08,51,17.90
2016,07,24,08,52,17.80
2016,07,24,08,53,17.80
2016,07,24,08,54,17.80
2016,07,24,08,55,17.90
2016,07,24,08,56,17.80
2016,07,24,08,57,17.80
2016,07,24,08,58,17.80
2016,07,24,08,59,17.70
2016,07,24,09,00,17.70
2016,07,24,09,01,17.70
2016,07,24,09,02,17.70
2016,07,24,09,03,17.70
2016,07,24,09,04,17.60
2016,07,24,09,05,17.50
2016,07,24,09,06,17.40
2016,07,24,09,07,17.40
2016,07,24,09,08,17.40
2016,07,24,09,09,17.40
2016,07,24,09,10,17.40
2016,07,24,09,11,17.40
2016,07,24,09,12,17.40
2016,07,24,09,13,17.30
2016,07,24,09,14,17.30
2016,07,24,09,15,17.30
2016,07,24,09,16,17.30
2016,07,24,09,17,17.20
2016,07,24,09,18,17.20
2016,07,24,09,19,17.10
2016,07,24,09,20,17.00
2016,07,24,09,21,16.90
2016,07,24,09,22,16.80
2016,07,24,09,23,16.80
2016,07,24,09,24,16.80
2016,07,24,09,25,16.80
2016,07,24,09,26,16.70
2016,07,24,09,27,16.70
2016,07,24,09,28,16.60
2016,07,24,09,29,16.50
2016,07,24,09,30,16.50
2016,07,24,09,31,16.40
2016,07,24,09,32,16.40
2016,07,24,09,33,16.40
2016,07,24,09,34,16.40
2016,07,24,09,35,16.30
2016,07,24,09,36,16.20
2016,07,24,09,37,16.10
2016,07,24,09,38,16.10
2016,07,24,09,39,16.10
2016,07,24,09,40,16.10
2016,07,24,09,41,16.10
2016,07,24,09,42,16.10
2016,07,24,09,43,16.20
2016,07,24,09,44,16.20
2016,07,24,09,45,16.30
2016,07,24,09,46,16.30
2016,07,24,09,47,16.40
2016,07,24,09,48,16.50
2016,07,24,09,49,16.60
2016,07,24,09,50,16.60
2016,07,24,09,51,16.70
2016,07,24,09,52,16.60
2016,07,24,09,53,16.60
2016,07,24,09,54,16.60
2016,07,24,09,55,16.50
2016,07,24,09,56,16.50
2016,07,24,09,57,16.50
2016,07,24,09,58,16.50
2016,07,24,09,59,16.50
2016,07,24,10,00,16.50
2016,07,24,10,01,16.40
2016,07,24,10,02,16.30
2016,07,24,10,03,16.30
2016,07,24,10,04,16.20
2016,07,24,10,05,16.30
2016,07,24,10,06,16.30
2016,07,24,10,07,16.40
2016,07,24,10,08,16.40
2016,07,24,10,09,16.40
2016,07,24,10,10,16.40
2016,07,24,10,11,16.40
2016,07,24,10,12,16.50
2016,07,24,10,13,16.50
2016,07,24,10,14,16.60
2016,07,24,10,15,16.60
2016,07,24,10,16,16.60
2016,07,24,10,17,16.70
2016,07,24,10,18,16.70
2016,07,24,10,19,16.80
2016,07,24,10,20,16.80
2016,07,24,10,21,16.90
2016,07,24,10,22,17.00
2016,07,24,10,23,17.00
2016,07,24,10,24,16.90
2016,07,24,10,25,16.90
2016,07,24,10,26,17.00
2016,07,24,10,27,17.00
2016,07,24,10,28,17.00
2016,07,24,10,29,17.00
2016,07,24,10,30,16.90
2016,07,24,10,31,16.90
2016,07,24,10,32,17.00
2016,07,24,10,33,17.00
2016,07,24,10,34,17.10
2016,07,24,10,35,17.20
2016,07,24,10,36,17.20
2016,07,24,10,37,17.30
2016,07,24,10,38,17.30
2016,07,24,10,39,17.40
2016,07,24,10,40,17.40
2016,07,24,10,41,17.50
2016,07,24,10,42,17.50
2016,07,24,10,43,17.60
2016,07,24,10,44,17.60
2016,07,24,10,45,17.60
2016,07,24,10,46,17.60
2016,07,24,10,47,17.70
2016,07,24,10,48,17.70
2016,07,24,10,49,17.70
2016,07,24,10,50,17.60
2016,07,24,10,51,17.60
2016,07,24,10,52,17.60
2016,07,24,10,53,17.60
2016,07,24,10,54,17.60
2016,07,24,10,55,17.60
2016,07,24,10,56,17.70
2016,07,24,10,57,17.70
2016,07,24,10,58,17.80
2016,07,24,10,59,17.90
2016,07,24,11,00,17.90
2016,07,24,11,01,18.00
2016,07,24,11,02,18.00
2016,07,24,11,03,18.10
2016,07,24,11,04,18.10
2016,07,24,11,05,18.00
2016,07,24,11,06,18.00
2016,07,24,11,07,17.90
2016,07,24,11,08,17.90
2016,07,24,11,09,18.00
2016,07,24,11,10,18.00
2016,07,24,11,11,18.10
2016,07,24,11,12,18.10
2016,07,24,11,13,18.20
2016,07,24,11,14,18.20
2016,07,24,11,15,18.20
2016,07,24,11,16,18.30
2016,07,24,11,17,18.30
2016,07,24,11,18,18.40
2016,07,24,11,19,18.50
2016,07,24,11,20,18.50
2016,07,24,11,21,18.60
2016,07,24,11,22,18.50
2016,07,24,11,23,18.50
2016,07,24,11,24,18.50
2016,07,24,11,25,18.40
2016,07,24,11,26,18.30
2016,07,24,11,27,18.30
2016,07,24,11,28,18.30
2016,07,24,11,29,18.30
2016,07,24,11,30,18.30
2016,07,24,11,31,18.30
2016,07,24,11,32,18.30
2016,07,24,11,33,18.30
2016,07,24,11,34,18.30
2016,07,24,11,35,18.30
2016,07,24,11,36,18.40
2016,07,24,11,37,18.60
2016,07,24,11,38,18.70
2016,07,24,11,39,18.80
2016,07,24,11,40,18.80
2016,07,24,11,41,18.90
2016,07,24,11,42,18.90
2016,07,24,11,43,18.80
2016,07,24,11,44,18.80
2016,07,24,11,45,18.80
2016,07,24,11,46,18.70
2016,07,24,11,47,18.70
2016,07,24,11,48,18.70
2016,07,24,11,49,18.60
2016,07,24,11,50,18.60
2016,07,24,11,51,18.50
2016,07,24,11,52,18.60
2016,07,24,11,53,18.60
2016,07,24,11,54,18.70
2016,07,24,11,55,18.80
2016,07,24,11,56,18.80
2016,07,24,11,57,18.90
2016,07,24,11,58,18.90
2016,07,24,11,59,18.90
2016,07,24,12,00,18.90
2016,07,24,12,01,18.90
2016,07,24,12,02,18.90
2016,07,24,12,03,18.90
2016,07,24,12,04,18.80
2016,07,24,12,05,18.70
2016,07,24,12,06,18.60
2016,07,24,12,07,18.70
2016,07,24,12,08,18.60
2016,07,24,12,09,18.60
2016,07,24,12,10,18.60
2016,07,24,12,11,18.60
2016,07,24,12,12,18.60
2016,07,24,12,13,18.70
2016,07,24,12,14,18.60
2016,07,24,12,15,18.60
2016,07,24,12,16,18.60
2016,07,24,12,17,18.50
2016,07,24,12,18,18.60
2016,07,24,12,19,18.60
2016,07,24,12,20,18.70
2016,07,24,12,21,18.80
2016,07,24,12,22,18.90
2016,07,24,12,23,18.80
2016,07,24,12,24,18.80
2016,07,24,12,25,18.80
2016,07,24,12,26,18.90
2016,07,24,12,27,18.90
2016,07,24,12,28,19.00
2016,07,24,12,29,19.00
2016,07,24,12,30,19.10
2016,07,24,12,31,19.10
2016,07,24,12,32,19.20
2016,07,24,12,33,19.30
2016,07,24,12,34,19.40
2016,07,24,12,35,19.50
2016,07,24,12,36,19.50
2016,07,24,12,37,19.60
2016,07,24,12,38,19.60
2016,07,24,12,39,19.70
2016,07,24,12,40,19.70
2016,07,24,12,41,19.80
2016,07,24,12,42,19.70
2016,07,24,12,43,19.70
2016,07,24,12,44,19.70
2016,07,24,12,45,19.70
2016,07,24,12,46,19.70
2016,07,24,12,47,19.70
2016,07,24,12,48,19.70
2016,07,24,12,49,19.70
2016,07,24,12,50,19.80
2016,07,24,12,51,19.80
2016,07,24,12,52,19.80
2016,07,24,12,53,19.80
2016,07,24,12,54,19.70
2016,07,24,12,55,19.70
2016,07,24,12,56,19.80
2016,07,24,12,57,19.80
2016,07,24,12,58,19.80
2016,07,24,12,59,19.80
2016,07,24,13,00,19.80
2016,07,24,13,01,19.70
2016,07,24,13,02,19.70
2016,07,24,13,03,19.70
2016,07,24,13,04,19.70
2016,07,24,13,05,19.70
2016,07,24,13,06,19.70
2016,07,24,13,07,19.70
2016,07,24,13,08,19.70
2016,07,24,13,09,19.70
2016,07,24,13,10,19.70
2016,07,24,13,11,19.70
2016,07,24,13,12,19.70
2016,07,24,13,13,19.70
2016,07,24,13,14,19.70
2016,07,24,13,15,19.70
2016,07,24,13,16,19.60
2016,07,24,13,17,19.60
2016,07,24,13,18,19.70
2016,07,24,13,19,19.70
2016,07,24,13,20,19.80
2016,07,24,13,21,19.80
2016,07,24,13,22,19.90
2016,07,24,13,23,20.00
2016,07,24,13,24,20.10
2016,07,24,13,25,20.20
2016,07,24,13,26,20.20
2016,07,24,13,27,20.20
2016,07,24,13,28,20.20
2016,07,24,13,29,20.20
2016,07,24,13,30,20.20
2016,07,24,13,31,20.30
2016,07,24,13,32,20.20
2016,07,24,13,33,20.10
2016,07,24,13,34,20.10
2016,07,24,13,35,20.00
2016,07,24,13,36,20.00
2016,07,24,13,37,19.80
2016,07,24,13,38,19.80
2016,07,24,13,39,19.70
2016,07,24,13,40,19.70
2016,07,24,13,41,19.70
2016,07,24,13,42,19.60
2016,07,24,13,43,19.60
2016,07,24,13,44,19.70
2016,07,24,13,45,19.60
2016,07,24,13,46,19.70
2016,07,24,13,47,19.70
2016,07,24,13,48,19.60
2016,07,24,13,49,19.50
2016,07,24,13,50,19.50
2016,07,24,13,51,19.50
2016,07,24,13,52,19.50
2016,07,24,13,53,19.50
2016,07,24,13,54,19.60
2016,07,24,13,55,19.60
2016,07,24,13,56,19.70
2016,07,24,13,57,19.80
2016,07,24,13,58,19.80
2016,07,24,13,59,19.80
2016,07,24,14,00,19.90
2016,07,24,14,01,19.80
2016,07,24,14,02,19.80
2016,07,24,14,03,19.70
2016,07,24,14,04,19.70
2016,07,24,14,05,19.70
2016,07,24,14,06,19.70
2016,07,24,14,07,19.70
2016,07,24,14,08,19.60
2016,07,24,14,09,19.50
2016,07,24,14,10,19.50
2016,07,24,14,11,19.40
2016,07,24,14,12,19.40
2016,07,24,14,13,19.40
2016,07,24,14,14,19.40
2016,07,24,14,15,19.40
2016,07,24,14,16,19.50
2016,07,24,14,17,19.60
2016,07,24,14,18,19.70
2016,07,24,14,19,19.70
2016,07,24,14,20,19.80
2016,07,24,14,21,19.80
2016,07,24,14,22,19.90
2016,07,24,14,23,19.90
2016,07,24,14,24,20.00
2016,07,24,14,25,20.10
2016,07,24,14,26,20.10
2016,07,24,14,27,20.20
2016,07,24,14,28,20.30
2016,07,24,14,29,20.30
2016,07,24,14,30,20.30
2016,07,24,14,31,20.40
2016,07,24,14,32,20.50
2016,07,24,14,33,20.60
2016,07,24,14,34,20.60
2016,07,24,14,35,20.70
2016,07,24,14,36,20.70
2016,07,24,14,37,20.70
2016,07,24,14,38,20.70
2016,07,24,14,39,20.80
2016,07,24,14,40,20.80
2016,07,24,14,41,20.80
2016,07,24,14,42,20.80
2016,07,24,14,43,20.80
2016,07,24,14,44,20.80
2016,07,24,14,45,20.80
2016,07,24,14,46,20.80
2016,07,24,14,47,20.80
2016,07,24,14,48,20.80
2016,07,24,14,49,20.80
2016,07,24,14,50,20.80
2016,07,24,14,51,20.80
2016,07,24,14,52,20.90
2016,07,24,14,53,20.90
2016,07,24,14,54,20.90
2016,07,24,14,55,20.90
2016,07,24,14,56,20.90
2016,07,24,14,57,20.80
2016,07,24,14,58,20.80
2016,07,24,14,59,20.90
2016,07,24,15,00,20.90
2016,07,24,15,01,21.00
2016,07,24,15,02,21.10
2016,07,24,15,03,21.20
2016,07,24,15,04,21.20
2016,07,24,15,05,21.30
2016,07,24,15,06,21.30
2016,07,24,15,07,21.40
2016,07,24,15,08,21.40
2016,07,24,15,09,21.50
2016,07,24,15,10,21.50
2016,07,24,15,11,21.60
2016,07,24,15,12,21.60
2016,07,24,15,13,21.60
2016,07,24,15,14,21.50
2016,07,24,15,15,21.40
2016,07,24,15,16,21.30
2016,07,24,15,17,21.30
2016,07,24,15,18,21.30
2016,07,24,15,19,21.30
2016,07,24,15,20,21.20
2016,07,24,15,21,21.10
2016,07,24,15,22,21.10
2016,07,24,15,23,21.10
2016,07,24,15,24,21.10
2016,07,24,15,25,21.10
2016,07,24,15,26,21.10
2016,07,24,15,27,21.20
2016,07,24,15,28,21.20
2016,07,24,15,29,21.20
2016,07,24,15,30,21.30
2016,07,24,15,31,21.30
2016,07,24,15,32,21.40
2016,07,24,15,33,21.40
2016,07,24,15,34,21.50
2016,07,24,15,35,21.50
2016,07,24,15,36,21.60
2016,07,24,15,37,21.70
2016,07,24,15,38,21.80
2016,07,24,15,39,21.90
2016,07,24,15,40,21.90
2016,07,24,15,41,22.00
2016,07,24,15,42,22.00
2016,07,24,15,43,22.00
2016,07,24,15,44,22.00
2016,07,24,15,45,22.00
2016,07,24,15,46,22.00
2016,07,24,15,47,21.90
2016,07,24,15,48,21.70
2016,07,24,15,49,21.50
2016,07,24,15,50,21.30
2016,07,24,15,51,21.10
2016,07,24,15,52,21.00
2016,07,24,15,53,20.90
2016,07,24,15,54,20.80
2016,07,24,15,55,20.70
2016,07,24,15,56,20.70
2016,07,24,15,57,20.70
2016,07,24,15,58,20.70
2016,07,24,15,59,20.80
2016,07,24,16,00,20.90
2016,07,24,16,01,21.00
2016,07,24,16,02,21.10
2016,07,24,16,03,21.10
2016,07,24,16,04,21.20
2016,07,24,16,05,21.30
2016,07,24,16,06,21.30
2016,07,24,16,07,21.40
2016,07,24,16,08,21.40
2016,07,24,16,09,21.30
2016,07,24,16,10,21.30
2016,07,24,16,11,21.30
2016,07,24,16,12,21.30
2016,07,24,16,13,21.30
2016,07,24,16,14,21.30
2016,07,24,16,15,21.30
2016,07,24,16,16,21.40
2016,07,24,16,17,21.40
2016,07,24,16,18,21.50
2016,07,24,16,19,21.50
2016,07,24,16,20,21.60
2016,07,24,16,21,21.50
2016,07,24,16,22,21.50
2016,07,24,16,23,21.50
2016,07,24,16,24,21.50
2016,07,24,16,25,21.40
2016,07,24,16,26,21.30
2016,07,24,16,27,21.20
2016,07,24,16,28,21.00
2016,07,24,16,29,20.90
2016,07,24,16,30,20.80
2016,07,24,16,31,20.80
2016,07,24,16,32,20.70
2016,07,24,16,33,20.70
2016,07,24,16,34,20.70
2016,07,24,16,35,20.70
2016,07,24,16,36,20.70
2016,07,24,16,37,20.80
2016,07,24,16,38,20.80
2016,07,24,16,39,20.80
2016,07,24,16,40,20.80
2016,07,24,16,41,20.80
2016,07,24,16,42,20.80
2016,07,24,16,43,20.80
2016,07,24,16,44,20.80
2016,07,24,16,45,20.90
2016,07,24,16,46,20.90
2016,07,24,16,47,20.90
2016,07,24,16,48,20.90
2016,07,24,16,49,20.90
2016,07,24,16,50,21.00
2016,07,24,16,51,21.10
2016,07,24,16,52,21.10
2016,07,24,16,53,21.20
2016,07,24,16,54,21.30
2016,07,24,16,55,21.30
2016,07,24,16,56,21.30
2016,07,24,16,57,21.40
2016,07,24,16,58,21.40
2016,07,24,16,59,21.40
2016,07,24,17,00,21.40
2016,07,24,17,01,21.40
2016,07,24,17,02,21.50
2016,07,24,17,03,21.50
2016,07,24,17,04,21.60
2016,07,24,17,05,21.60
2016,07,24,17,06,21.60
2016,07,24,17,07,21.60
2016,07,24,17,08,21.60
2016,07,24,17,09,21.60
2016,07,24,17,10,21.60
2016,07,24,17,11,21.60
2016,07,24,17,12,21.60
2016,07,24,17,13,21.60
2016,07,24,17,14,21.60
2016,07,24,17,15,21.60
2016,07,24,17,16,21.60
2016,07,24,17,17,21.70
2016,07,24,17,18,21.80
2016,07,24,17,19,21.90